| time (UTC) | temp F | wind direction | speed MPH | gust MPH | rain 1hr in | rain 24hr in | rain mn in | humidity % | barometer mb |
| 20260903214859 | 68 | 3.0 | 0.0 | 0.00 | 0.00 | 0.00 | 60 | 1017.0 | |
| 20260903213408 | 68 | 3.0 | 0.0 | 0.00 | 0.00 | 0.00 | 60 | 1017.0 | |
| 20260903211903 | 68 | 3.0 | 0.0 | 0.00 | 0.00 | 0.00 | 60 | 1017.0 | |
| 20260903210401 | 68 | 3.0 | 0.0 | 0.00 | 0.00 | 0.00 | 60 | 1017.0 | |
| 20260903205018 | 0 | 0.0 | 0.0 | 0.00 | 0.00 | 0.00 | |||
| 20260903203400 | 70 | 80 | 5.0 | 0.0 | 0.00 | 0.00 | 0.00 | 53 | 1016.0 |
| 20260903201900 | 70 | 80 | 5.0 | 0.0 | 0.00 | 0.00 | 0.00 | 53 | 1016.0 |
| 20260903200400 | 70 | 80 | 5.0 | 0.0 | 0.00 | 0.00 | 0.00 | 53 | 1016.0 |
| 20260903194900 | 70 | 80 | 5.0 | 0.0 | 0.00 | 0.00 | 0.00 | 53 | 1016.0 |
| 20260903193401 | 70 | 90 | 7.0 | 0.0 | 0.00 | 0.00 | 0.00 | 46 | 1016.0 |
| 20260903191859 | 70 | 90 | 7.0 | 0.0 | 0.00 | 0.00 | 0.00 | 46 | 1016.0 |
| 20260903190400 | 70 | 90 | 7.0 | 0.0 | 0.00 | 0.00 | 0.00 | 46 | 1016.0 |
| 20260903184900 | 75 | 10 | 7.0 | 0.0 | 0.00 | 0.00 | 0.00 | 47 | 1016.0 |
| 20260903183401 | 75 | 10 | 7.0 | 0.0 | 0.00 | 0.00 | 0.00 | 47 | 1016.0 |
| 20260903181859 | 75 | 10 | 7.0 | 0.0 | 0.00 | 0.00 | 0.00 | 47 | 1016.0 |
| 20260903180400 | 75 | 10 | 7.0 | 0.0 | 0.00 | 0.00 | 0.00 | 47 | 1016.0 |
| 20260903174900 | 79 | 20 | 9.0 | 0.0 | 0.00 | 0.00 | 0.00 | 39 | 1015.0 |
| 20260903173401 | 79 | 20 | 9.0 | 0.0 | 0.00 | 0.00 | 0.00 | 39 | 1015.0 |
| 20260903171901 | 79 | 20 | 9.0 | 0.0 | 0.00 | 0.00 | 0.00 | 39 | 1015.0 |
| 20260903170401 | 0 | 0.0 | 0.0 | 0.00 | 0.00 | 0.00 | |||
| 20260903164900 | 84 | 20 | 11.0 | 0.0 | 0.00 | 0.00 | 0.00 | 35 | 1015.0 |
| 20260903163400 | 84 | 20 | 11.0 | 0.0 | 0.00 | 0.00 | 0.00 | 35 | 1015.0 |
| 20260903161900 | 84 | 20 | 11.0 | 0.0 | 0.00 | 0.00 | 0.00 | 35 | 1015.0 |
| 20260903160401 | 84 | 20 | 11.0 | 0.0 | 0.00 | 0.00 | 0.00 | 35 | 1015.0 |
| 20260903154901 | 86 | 10 | 11.0 | 0.0 | 0.00 | 0.00 | 0.00 | 33 | 1015.0 |
| 20260903153401 | 86 | 10 | 11.0 | 0.0 | 0.00 | 0.00 | 0.00 | 33 | 1015.0 |
| 20260903151901 | 86 | 10 | 11.0 | 0.0 | 0.00 | 0.00 | 0.00 | 33 | 1015.0 |
| 20260903150401 | 86 | 10 | 11.0 | 0.0 | 0.00 | 0.00 | 0.00 | 33 | 1015.0 |
| 20260903144859 | 86 | 40 | 14.0 | 0.0 | 0.00 | 0.00 | 0.00 | 31 | 1015.0 |
| 20260903143400 | 86 | 40 | 14.0 | 0.0 | 0.00 | 0.00 | 0.00 | 31 | 1015.0 |
| 20260903141900 | 86 | 40 | 14.0 | 0.0 | 0.00 | 0.00 | 0.00 | 31 | 1015.0 |
| 20260903140400 | 86 | 40 | 14.0 | 0.0 | 0.00 | 0.00 | 0.00 | 31 | 1015.0 |
| 20260903134901 | 0 | 0.0 | 0.0 | 0.00 | 0.00 | 0.00 | |||
| 20260903133359 | 0 | 0.0 | 0.0 | 0.00 | 0.00 | 0.00 | |||
| 20260903131900 | 0 | 0.0 | 0.0 | 0.00 | 0.00 | 0.00 | |||
| 20260903130401 | 0 | 0.0 | 0.0 | 0.00 | 0.00 | 0.00 | |||
| 20260903124900 | 88 | 10 | 14.0 | 0.0 | 0.00 | 0.00 | 0.00 | 31 | 1016.0 |
| 20260903123411 | 88 | 10 | 14.0 | 0.0 | 0.00 | 0.00 | 0.00 | 31 | 1016.0 |
| 20260903121859 | 88 | 10 | 14.0 | 0.0 | 0.00 | 0.00 | 0.00 | 31 | 1016.0 |
| 20260903120400 | 88 | 10 | 14.0 | 0.0 | 0.00 | 0.00 | 0.00 | 31 | 1016.0 |
| 20260903114901 | 86 | 20 | 11.0 | 0.0 | 0.00 | 0.00 | 0.00 | 38 | 1016.0 |
| 20260903113359 | 86 | 20 | 11.0 | 0.0 | 0.00 | 0.00 | 0.00 | 38 | 1016.0 |
| 20260903111901 | 86 | 20 | 11.0 | 0.0 | 0.00 | 0.00 | 0.00 | 38 | 1016.0 |
| 20260903110400 | 86 | 20 | 11.0 | 0.0 | 0.00 | 0.00 | 0.00 | 38 | 1016.0 |
| 20260903104900 | 84 | 360 | 15.0 | 0.0 | 0.00 | 0.00 | 0.00 | 43 | 1017.0 |
| 20260903103400 | 84 | 360 | 15.0 | 0.0 | 0.00 | 0.00 | 0.00 | 43 | 1017.0 |
| 20260903101900 | 84 | 360 | 15.0 | 0.0 | 0.00 | 0.00 | 0.00 | 43 | 1017.0 |
| 20260903100400 | 0 | 0.0 | 0.0 | 0.00 | 0.00 | 0.00 | |||
| 20260903094859 | 82 | 20 | 16.0 | 0.0 | 0.00 | 0.00 | 0.00 | 42 | 1017.0 |
| 20260903093400 | 82 | 20 | 16.0 | 0.0 | 0.00 | 0.00 | 0.00 | 42 | 1017.0 |
| 20260903091917 | 82 | 20 | 16.0 | 0.0 | 0.00 | 0.00 | 0.00 | 42 | 1017.0 |
| 20260903090416 | 0 | 0.0 | 0.0 | 0.00 | 0.00 | 0.00 | |||
| 20260903084900 | 0 | 0.0 | 0.0 | 0.00 | 0.00 | 0.00 | |||
| 20260903083400 | 0 | 0.0 | 0.0 | 0.00 | 0.00 | 0.00 | |||
| 20260903081900 | 0 | 0.0 | 0.0 | 0.00 | 0.00 | 0.00 | |||
| 20260903080359 | 0 | 0.0 | 0.0 | 0.00 | 0.00 | 0.00 | |||
| 20260903074858 | 75 | 10 | 11.0 | 0.0 | 0.00 | 0.00 | 0.00 | 57 | 1017.0 |
| 20260903073400 | 75 | 10 | 11.0 | 0.0 | 0.00 | 0.00 | 0.00 | 57 | 1017.0 |
| 20260903071859 | 0 | 0.0 | 0.0 | 0.00 | 0.00 | 0.00 | |||
| 20260903070400 | 0 | 0.0 | 0.0 | 0.00 | 0.00 | 0.00 | |||
| 20260903064900 | 72 | 350 | 11.0 | 0.0 | 0.00 | 0.00 | 0.00 | 69 | 1018.0 |
| 20260903063400 | 72 | 350 | 11.0 | 0.0 | 0.00 | 0.00 | 0.00 | 69 | 1018.0 |
| 20260903061900 | 72 | 350 | 11.0 | 0.0 | 0.00 | 0.00 | 0.00 | 69 | 1018.0 |
| 20260903060404 | 0 | 0.0 | 0.0 | 0.00 | 0.00 | 0.00 | |||
| 20260903054905 | 68 | 360 | 7.0 | 0.0 | 0.00 | 0.00 | 0.00 | 78 | 1017.0 |
| 20260903053400 | 68 | 360 | 7.0 | 0.0 | 0.00 | 0.00 | 0.00 | 78 | 1017.0 |
| 20260903051901 | 68 | 360 | 7.0 | 0.0 | 0.00 | 0.00 | 0.00 | 78 | 1017.0 |
| 20260903050401 | 68 | 360 | 7.0 | 0.0 | 0.00 | 0.00 | 0.00 | 78 | 1017.0 |
| 20260903044859 | 66 | 350 | 7.0 | 0.0 | 0.00 | 0.00 | 0.00 | 88 | 1017.0 |
| 20260903043359 | 66 | 350 | 7.0 | 0.0 | 0.00 | 0.00 | 0.00 | 88 | 1017.0 |
| 20260903041859 | 66 | 350 | 7.0 | 0.0 | 0.00 | 0.00 | 0.00 | 88 | 1017.0 |
| 20260903040400 | 66 | 350 | 7.0 | 0.0 | 0.00 | 0.00 | 0.00 | 88 | 1017.0 |
| 20260903034900 | 66 | 340 | 3.0 | 0.0 | 0.00 | 0.00 | 0.00 | 83 | 1017.0 |
| 20260903033400 | 66 | 340 | 3.0 | 0.0 | 0.00 | 0.00 | 0.00 | 83 | 1017.0 |
| 20260903031900 | 66 | 340 | 3.0 | 0.0 | 0.00 | 0.00 | 0.00 | 83 | 1017.0 |
| 20260903030515 | 0 | 0.0 | 0.0 | 0.00 | 0.00 | 0.00 | |||
| 20260903025014 | 0 | 0.0 | 0.0 | 0.00 | 0.00 | 0.00 | |||
| 20260903023447 | 0 | 0.0 | 0.0 | 0.00 | 0.00 | 0.00 | |||
| 20260903021859 | 0 | 0.0 | 0.0 | 0.00 | 0.00 | 0.00 | |||
| 20260903020521 | 0 | 0.0 | 0.0 | 0.00 | 0.00 | 0.00 | |||
| 20260903014900 | 0 | 0.0 | 0.0 | 0.00 | 0.00 | 0.00 | |||
| 20260903013359 | 0 | 0.0 | 0.0 | 0.00 | 0.00 | 0.00 | |||
| 20260903011859 | 0 | 0.0 | 0.0 | 0.00 | 0.00 | 0.00 | |||
| 20260903010400 | 0 | 0.0 | 0.0 | 0.00 | 0.00 | 0.00 | |||
| 20260903004900 | 0 | 0.0 | 0.0 | 0.00 | 0.00 | 0.00 | |||
| 20260903003400 | 0 | 0.0 | 0.0 | 0.00 | 0.00 | 0.00 | |||
| 20260903001900 | 0 | 0.0 | 0.0 | 0.00 | 0.00 | 0.00 | |||
| 20260903000359 | 0 | 0.0 | 0.0 | 0.00 | 0.00 | 0.00 | |||
| 20260902234859 | 0 | 0.0 | 0.0 | 0.00 | 0.00 | 0.00 | |||
| 20260902233400 | 0 | 0.0 | 0.0 | 0.00 | 0.00 | 0.00 | |||
| 20260902231901 | 0 | 0.0 | 0.0 | 0.00 | 0.00 | 0.00 | |||
| 20260902230359 | 0 | 0.0 | 0.0 | 0.00 | 0.00 | 0.00 | |||
| 20260902224859 | 68 | 50 | 6.0 | 0.0 | 0.00 | 0.00 | 0.00 | 69 | 1018.0 |
| 20260902223359 | 68 | 50 | 6.0 | 0.0 | 0.00 | 0.00 | 0.00 | 69 | 1018.0 |
| 20260902221859 | 68 | 50 | 6.0 | 0.0 | 0.00 | 0.00 | 0.00 | 69 | 1018.0 |
| 20260902220359 | 68 | 50 | 6.0 | 0.0 | 0.00 | 0.00 | 0.00 | 69 | 1018.0 |